Volver al catálogo

STARLINK-35153

ActivoComunicacionesVLEO
NORAD 65625·PAYLOAD·🇺🇸 United States

Lanzado Sep 18, 2025 desde Cape Canaveral Space Force Station

Loading…

Próximos Pases (próximas 24 horas)

TLE

ActualizadoSource: CelesTrak SupGP

Época: Sep 14, 2026, 20:49 UTC

1 65625C 25210D   26257.86784722 -.00049803  00000+0 -14712-2 0  2579
2 65625  53.1572 143.7795 0001105  93.8357 129.0049 15.34420457    18

Sigue STARLINK-35153 en tiempo real con AllMySat

Download on the App Store